UAL212 KLAX-KEGE

Flight info

Callsign UAL212
Flight time N/A
Altitude 37000
Route ORCKA5 LAS J146 DICEE IBSKI AAVON1
Aircraft A319/M-SDE3FGHIRWY/LB1

Departure

Time N/A
Airport Los Angeles International Airport (KLAX)

Arrival

Time 2026-04-30 18:20
Airport Eagle County Regional Airport (KEGE)
Time Latitude Longitude Altitude Speed Heading
2026-04-30 17:39 37.89539 -110.16065 37133 ft 506 kts 46°
2026-04-30 17:41 38.09501 -109.92159 37123 ft 485 kts 22°
2026-04-30 17:42 38.15320 -109.87777 37124 ft 485 kts 22°
2026-04-30 17:43 38.29776 -109.76778 37124 ft 485 kts 22°
2026-04-30 17:44 38.47005 -109.63526 37117 ft 482 kts 22°
2026-04-30 17:47 38.72809 -109.43541 37123 ft 481 kts 22°
2026-04-30 17:48 38.92719 -109.28000 37138 ft 481 kts 22°
2026-04-30 17:50 39.15493 -109.10098 37148 ft 477 kts 23°
2026-04-30 17:52 39.32427 -108.96695 37151 ft 477 kts 24°
2026-04-30 17:53 39.46301 -108.84853 37149 ft 486 kts 35°
2026-04-30 17:54 39.54518 -108.70773 37161 ft 501 kts 59°
2026-04-30 17:56 39.66856 -108.38570 37112 ft 498 kts 59°
2026-04-30 17:57 39.71575 -108.26316 34845 ft 510 kts 60°
2026-04-30 17:58 39.76294 -108.13964 32974 ft 508 kts 62°
2026-04-30 17:59 39.81903 -107.97360 30665 ft 498 kts 65°
2026-04-30 18:00 39.87307 -107.81091 28333 ft 478 kts 64°
2026-04-30 18:00 39.91155 -107.69482 26330 ft 457 kts 64°
2026-04-30 18:01 39.93625 -107.62013 25122 ft 443 kts 64°
2026-04-30 18:02 39.97190 -107.51194 23591 ft 425 kts 64°
2026-04-30 18:02 40.00594 -107.40825 22172 ft 408 kts 65°
2026-04-30 18:03 40.03189 -107.30518 20988 ft 390 kts 79°
2026-04-30 18:04 40.04301 -107.20330 19930 ft 372 kts 82°
2026-04-30 18:05 40.05638 -107.07756 17866 ft 332 kts 82°
2026-04-30 18:06 40.06886 -106.96036 16652 ft 317 kts 82°
2026-04-30 18:07 40.08042 -106.85093 16153 ft 298 kts 81°
2026-04-30 18:08 40.08000 -106.77107 15993 ft 295 kts 97°
2026-04-30 18:09 40.06894 -106.66513 16004 ft 295 kts 97°
2026-04-30 18:10 40.03501 -106.58283 16046 ft 269 kts 175°
2026-04-30 18:11 39.96059 -106.59609 14768 ft 271 kts 188°
2026-04-30 18:11 39.90474 -106.60541 13957 ft 264 kts 187°
2026-04-30 18:12 39.85048 -106.61422 13261 ft 247 kts 187°
2026-04-30 18:13 39.81835 -106.61943 13191 ft 226 kts 187°
2026-04-30 18:13 39.77703 -106.62612 12435 ft 222 kts 187°
2026-04-30 18:14 39.74151 -106.63188 11730 ft 220 kts 188°
2026-04-30 18:15 39.69673 -106.64181 10891 ft 215 kts 212°
2026-04-30 18:15 39.66866 -106.68219 10188 ft 191 kts 248°
2026-04-30 18:16 39.66391 -106.71532 9891 ft 187 kts 265°
2026-04-30 18:16 39.66085 -106.74820 9324 ft 179 kts 265°
2026-04-30 18:17 39.65927 -106.76374 9038 ft 166 kts 264°
2026-04-30 18:17 39.65777 -106.77796 8777 ft 155 kts 264°
2026-04-30 18:17 39.65501 -106.80413 8326 ft 143 kts 264°
2026-04-30 18:18 39.65362 -106.81693 8113 ft 142 kts 263°
2026-04-30 18:18 39.65227 -106.82955 7900 ft 141 kts 263°
2026-04-30 18:18 39.65089 -106.84217 7677 ft 141 kts 263°
2026-04-30 18:18 39.64954 -106.85468 7459 ft 140 kts 263°
2026-04-30 18:19 39.64819 -106.86710 7244 ft 140 kts 263°
2026-04-30 18:19 39.64685 -106.87952 7033 ft 139 kts 264°
2026-04-30 18:19 39.64557 -106.89195 6821 ft 139 kts 262°
2026-04-30 18:19 39.64405 -106.90425 6590 ft 137 kts 263°
2026-04-30 18:20 39.64289 -106.91482 6536 ft 81 kts 262°
2026-04-30 18:20 39.64240 -106.91941 6523 ft 37 kts 262°
2026-04-30 18:20 39.64210 -106.92213 6516 ft 17 kts 260°